User: anonymous   Login
Location: ?????
(30.2541°N, 31.0910°E)
Time: 08:06:40
(UTC+00:00)
Language:

Cosmos 1536 - Orbit

View from above orbital plane
View from above orbital plane
View from above satellite
View from above satellite

Ground track
Ground track

The orbit data is extracted from the following two-line orbital elements,

1 14699U 84013A   23032.49656698  .00003899  00000-0  25372-3 0  9999
2 14699  82.5266 137.6360 0011431 242.5605 117.4461 15.07662166101220
Epoch (UTC): 01 February 2023 11:55:03
Eccentricity: 0.0011431
inclination: 82.5266°
perigee height: 535 km
apogee height: 551 km
right ascension of ascending node: 137.6360°
argument of perigee: 242.5605°
revolutions per day: 15.07662166
mean anomaly at epoch: 117.4461°
orbit number at epoch: 10122

The dashed part of the orbit path shows where the satellite is in the earth's shadow,  

DLR